Temp
23 22 22 21 19 18 19 21 21 22 23 25 23 24 25 23 25 24 19 19 21 22 21 21 21 21 20 20 20 20 20 19 20 20 19 19 19 19 19 19 19 19 19 19 19 19 19 19 19
23 22 22 17 18 18 18 20 22 22 23 22 23 25 24 23 22 19 19 20 21 22 21 21 21 21 21 21 20 20 19 19 19 20 19 19 19 19 19 19 19 19 19 19 19 19 19 19 19
21 22 19 18 16 17 19 21 20 22 22 23 24 23 22 22 21 20 22 21 21 22 21 21 21 21 21 20 20 20 19 19 19 19 19 19 19 19 19 19 19 19 19 19 19 19 19 19 19
21 20 17 18 18 19 20 20 20 21 23 23 22 24 21 19 18 19 20 21 21 21 21 21 21 21 21 20 20 20 19 19 19 19 19 19 19 19 19 19 19 18 18 18 18 18 18 18 18
20 16 16 17 18 19 20 21 20 21 21 22 21 21 21 19 19 19 20 21 21 21 21 21 21 21 21 20 20 20 19 19 19 19 20 19 19 19 18 18 18 18 19 18 18 18 18 18 18
16 15 16 17 17 19 19 21 20 21 21 21 21 20 20 19 20 19 19 20 21 22 22 22 21 21 20 20 20 20 19 19 19 19 19 19 19 18 18 18 18 18 18 18 18 18 18 18 18
17 15 16 17 18 19 22 20 22 21 21 22 21 21 20 20 20 19 19 20 20 21 21 21 21 21 21 20 20 20 19 19 19 19 19 19 19 18 18 18 18 18 18 18 18 18 17 17 17
15 16 17 18 18 20 21 21 22 22 22 21 21 21 21 20 20 19 19 20 20 20 20 20 20 20 20 19 20 20 20 19 19 19 19 19 19 18 17 17 17 18 18 18 17 17 17 17 17
17 15 16 19 19 20 21 21 22 21 21 20 21 21 21 19 19 19 18 19 19 20 20 20 19 18 19 18 18 19 20 19 19 19 19 18 18 18 17 17 17 18 17 17 17 17 16 17 17
16 15 17 18 20 20 21 21 21 21 19 21 21 20 20 18 18 18 18 18 18 18 20 20 20 19 18 18 19 18 18 19 19 19 18 18 18 18 17 17 17 17 17 17 17 16 16 17 17
17 17 19 20 19 20 21 21 21 20 20 19 18 18 18 18 17 17 17 18 18 19 19 21 21 21 22 21 20 21 18 19 19 19 18 18 18 18 17 17 17 17 17 16 16 17 17 16 16
20 19 19 21 21 21 21 21 21 20 19 16 16 17 16 15 15 16 16 17 17 18 19 19 20 21 21 18 18 18 16 19 19 18 18 18 17 18 17 17 17 17 17 16 17 17 16 16 16
19 20 20 20 19 19 20 20 20 19 18 16 16 15 15 15 16 17 17 17 17 17 18 19 20 20 20 19 16 16 18 18 18 18 18 18 18 18 17 17 16 16 17 17 17 17 16 16 15
20 20 19 19 20 20 20 20 20 19 17 16 15 14 15 15 15 15 16 16 17 16 17 18 20 19 17 16 16 16 16 17 18 18 18 18 18 18 17 17 16 16 17 17 17 17 16 15 15
20 19 19 21 20 21 19 20 19 17 17 16 14 13 14 14 15 14 15 15 16 16 15 18 19 19 18 17 18 17 16 16 18 18 18 18 18 18 18 17 16 16 17 17 16 16 16 15 15
18 17 18 20 20 20 20 18 17 16 17 16 13 12 13 13 14 14 14 15 15 16 15 17 19 19 19 16 16 17 17 16 17 18 18 18 18 18 18 17 16 16 17 17 16 16 16 15 15
16 17 18 18 19 20 20 18 17 16 16 15 13 12 12 13 13 14 14 14 15 15 15 15 18 19 18 15 15 16 15 16 16 18 18 17 18 18 18 18 17 17 17 17 17 16 16 15 14
17 18 17 16 19 20 19 16 17 16 16 14 12 11 11 12 12 13 13 14 15 14 15 15 16 18 18 15 14 14 15 15 16 18 17 17 17 18 18 18 17 17 17 17 16 16 16 15 14
18 18 17 16 18 19 18 16 16 16 16 14 12 11 12 12 13 13 13 13 14 15 15 16 16 18 17 16 15 15 16 15 16 17 16 16 16 17 17 18 18 17 18 17 17 16 15 14 14
18 18 17 17 18 18 17 16 16 16 16 14 13 12 12 13 13 13 13 12 13 14 15 16 16 17 17 17 16 16 15 15 15 16 16 15 15 16 17 18 18 18 18 17 16 16 14 13 14
18 17 17 18 18 18 16 15 16 16 16 14 12 11 15 14 13 13 13 12 13 14 14 16 16 16 16 15 15 16 15 16 15 15 15 14 15 16 17 17 18 18 18 17 16 16 16 14 14
18 18 18 19 17 16 16 15 15 16 13 13 11 15 13 13 13 13 13 12 13 13 14 14 15 16 15 16 15 15 15 14 13 14 14 13 13 14 16 16 17 17 18 18 17 17 17 16 14
18 18 18 17 16 16 16 14 14 14 14 12 12 14 13 13 12 13 13 13 13 13 13 14 14 14 15 15 15 15 14 14 14 14 14 13 13 13 15 15 16 17 17 18 18 17 16 16 16
18 18 15 14 14 14 16 15 14 14 14 12 12 14 13 12 12 14 14 14 13 13 13 13 13 14 15 15 15 14 14 13 13 13 12 13 13 13 13 14 16 17 15 17 17 17 16 16 16
17 15 12 14 12 14 14 13 14 15 13 12 13 13 12 12 12 12 14 14 13 13 13 13 13 12 13 13 14 13 13 12 11 11 12 12 13 13 13 15 15 16 15 16 16 16 16 16 16
17 15 11 13 11 11 13 13 16 15 12 12 12 13 12 12 11 11 12 13 13 13 13 13 12 12 12 12 12 12 12 12 11 12 12 11 11 12 12 12 13 14 14 15 15 15 14 14 14
16 15 14 11 11 10 12 14 15 13 13 13 12 13 12 11 11 11 11 11 12 12 12 12 12 12 12 12 12 11 11 11 11 11 11 11 11 11 11 11 12 13 13 13 13 13 13 13 13
17 14 15 11 13 15 13 14 14 15 15 13 12 13 12 11 11 10 10 10 10 11 11 12 12 11 11 11 12 11 11 11 11 11 10 10 10 9 9 10 11 11 11 12 12 12 12 12 12
15 15 13 13 12 15 14 15 13 15 14 13 12 11 12 11 10 10 9 9 9 10 10 10 11 11 11 11 12 12 11 11 10 10 10 10 10 9 9 9 10 10 11 11 12 12 11 12 12
15 15 14 13 15 12 12 14 14 14 13 12 12 11 11 10 10 10 9 9 9 9 9 9 9 10 10 10 10 10 10 11 10 10 10 9 9 8 8 9 9 9 10 10 10 10 10 10 10
Height
788 788 788 789 816 822 824 813 799 799 793 780 777 778 776 778 779 793 770 770 769 775 780 784 787 787 792 793 798 801 803 805 806 807 810 812 814 815 816 817 819 819 820 820 821 821 821 822 822
787 788 789 800 827 837 831 809 806 796 788 778 773 771 774 780 773 773 772 770 771 775 782 785 788 791 793 795 798 801 805 807 808 809 811 813 815 817 818 819 821 822 822 823 824 824 825 825 825
788 788 798 813 829 835 828 805 804 790 782 780 778 771 776 781 775 773 772 771 772 775 782 786 789 792 795 798 799 803 806 809 811 812 814 816 818 819 820 822 823 824 825 825 826 827 827 828 829
789 791 803 820 826 816 811 806 799 794 782 780 782 782 779 780 780 776 775 774 774 777 781 785 789 793 795 798 801 803 807 810 812 813 816 818 820 821 822 824 825 826 828 828 828 830 830 832 832
790 801 824 826 823 813 806 800 798 799 793 787 783 789 783 780 779 777 776 775 776 780 782 785 789 794 796 800 802 805 807 811 814 815 816 819 822 824 825 826 827 829 830 831 831 832 833 834 835
804 809 831 834 824 810 805 797 797 797 793 788 788 791 785 781 780 779 779 779 778 779 783 788 792 794 798 800 802 805 808 811 813 816 818 820 823 825 827 828 829 831 833 833 834 836 836 837 838
806 818 827 824 820 813 801 795 796 796 794 791 786 791 785 781 781 780 781 782 782 785 787 788 790 794 798 800 802 806 809 811 813 815 819 820 823 826 828 831 832 833 835 836 836 839 838 839 840
803 814 821 819 820 814 798 796 791 793 793 785 784 793 791 782 782 782 782 783 784 786 786 788 788 791 796 799 802 805 809 811 813 815 818 821 823 827 829 832 834 835 837 837 839 842 842 841 842
798 823 829 815 814 807 796 798 791 789 791 789 785 785 783 781 782 783 783 783 783 784 784 788 789 791 792 796 800 806 808 811 812 814 817 822 824 827 829 832 835 837 838 840 842 845 845 844 844
808 827 818 805 800 802 795 796 793 794 796 790 786 783 782 783 783 784 785 784 783 783 784 787 789 789 791 793 796 801 809 807 810 813 815 819 823 826 830 833 836 838 840 842 844 847 846 845 846
807 815 803 797 795 793 793 794 791 795 797 794 794 787 784 782 783 783 782 783 784 783 782 785 786 787 787 789 792 793 800 805 806 810 814 817 822 825 828 833 836 839 840 843 845 847 849 848 849
806 798 798 792 790 791 793 789 793 794 799 797 791 789 786 784 783 781 779 779 780 779 779 781 782 782 782 784 785 783 791 797 801 807 811 815 820 824 828 831 835 839 842 844 847 848 850 851 852
802 796 793 790 790 790 788 790 792 796 795 795 794 790 789 787 784 782 780 778 776 776 776 775 778 777 778 777 781 781 779 783 798 804 810 814 818 823 827 831 834 838 843 845 847 850 851 854 855
795 794 794 789 787 786 788 790 790 794 794 796 795 794 791 789 787 783 779 776 774 774 773 773 773 774 775 776 776 776 776 788 797 800 805 812 817 821 826 830 834 838 842 845 848 851 853 856 858
793 799 795 788 788 786 787 795 795 795 793 795 795 795 793 789 786 783 779 775 772 769 768 770 772 773 775 774 775 777 779 785 796 797 802 809 815 820 825 829 833 837 842 845 848 852 854 857 860
803 805 813 792 788 786 789 805 796 794 793 794 796 795 790 786 783 780 776 771 768 766 764 767 768 771 773 775 773 775 782 779 794 798 801 807 814 819 824 828 833 837 840 843 848 852 855 857 860
815 819 812 805 789 789 791 798 794 792 793 796 796 794 789 783 779 776 771 767 763 761 761 763 765 768 771 774 777 779 781 791 794 798 801 806 813 818 823 827 832 836 840 842 846 851 854 858 861
817 815 812 814 796 790 794 798 793 792 793 796 797 794 789 783 775 770 768 762 759 756 753 757 760 765 768 774 778 776 778 784 788 796 800 806 811 817 822 827 832 834 838 842 846 849 854 858 861
804 810 814 806 794 795 796 798 793 791 793 796 798 792 785 779 771 767 764 761 756 753 749 753 757 760 765 769 771 773 776 783 788 796 801 806 810 816 821 826 831 834 837 840 845 850 855 860 863
805 807 811 801 793 794 797 797 791 790 792 796 796 792 785 775 769 766 763 760 755 754 751 752 754 757 762 765 771 774 780 784 789 795 801 805 810 816 821 826 829 834 837 840 844 847 854 860 864
802 808 805 804 797 793 800 800 795 790 792 796 796 792 781 778 770 765 762 759 754 752 752 753 755 759 763 765 769 775 780 785 790 794 800 805 809 815 820 826 828 833 837 839 842 845 849 857 862
805 796 797 797 806 815 801 820 800 793 798 800 798 784 783 777 772 765 760 757 756 754 755 755 757 762 763 767 770 775 780 784 785 793 798 801 805 811 820 824 829 834 836 839 841 845 850 852 859
800 792 797 799 805 809 808 821 804 798 795 803 797 785 784 778 773 766 761 759 758 759 759 760 761 766 765 769 772 775 779 783 785 790 798 802 804 812 817 823 828 833 835 839 838 843 849 852 854
791 796 806 811 815 823 809 815 809 800 797 802 796 787 787 782 776 769 766 764 765 765 764 765 767 769 769 773 773 775 781 783 786 790 794 798 803 808 814 822 826 830 836 836 838 843 847 851 853
796 810 839 828 836 828 813 820 804 793 797 801 796 792 790 785 781 776 772 771 771 772 772 771 771 773 773 774 777 780 783 786 789 791 796 800 804 810 814 818 823 827 833 834 837 842 845 849 852
796 806 840 844 847 843 817 819 794 790 796 797 796 795 792 789 786 783 781 778 777 777 777 776 778 778 779 780 782 784 787 787 790 795 799 802 807 810 817 822 826 829 831 833 837 841 845 849 851
799 807 807 834 839 845 823 802 787 790 793 795 795 795 795 792 789 787 786 784 782 782 782 781 780 782 782 783 786 788 789 790 795 800 803 807 810 814 817 823 826 829 831 835 838 842 847 849 852
787 798 811 829 831 820 819 811 803 786 785 791 794 794 795 794 792 790 788 787 787 786 785 785 784 783 783 785 788 790 793 795 801 803 807 809 813 817 819 825 830 834 836 838 841 843 846 850 852
796 799 808 812 821 819 820 806 789 783 781 786 793 796 794 795 794 791 790 789 788 788 789 789 788 787 789 788 787 792 795 798 803 807 807 809 813 818 819 824 830 834 837 840 841 843 845 847 849
781 788 796 811 812 823 822 805 779 780 783 784 789 793 793 796 795 794 792 791 791 791 791 791 792 792 794 792 789 792 796 799 804 807 808 814 816 820 825 828 831 834 838 840 842 846 846 846 846
Wind_Speed
4 2 2 4 3 4 3 4 2 6 7 3 6 6 3 2 1 3 9 5 15 26 30 25 27 27 24 23 22 20 20 18 19 20 20 19 17 16 16 16 15 15 15 17 18 19 20 20 20
1 3 4 2 4 2 4 3 4 5 7 10 5 2 4 2 2 1 4 2 20 29 29 24 26 25 25 21 21 21 19 19 19 20 20 19 17 16 16 16 15 15 16 17 19 19 20 19 21
5 3 3 3 3 4 4 1 6 7 9 4 5 4 3 3 5 3 7 9 23 32 28 25 25 24 23 20 21 20 19 18 18 18 19 18 18 16 16 16 16 16 17 17 19 20 21 20 21
3 5 4 3 4 4 2 5 5 9 6 6 2 2 2 1 4 8 2 14 23 33 28 25 23 22 23 21 21 21 19 18 18 19 18 17 17 16 16 16 16 17 18 19 20 21 22 21 21
6 3 3 1 3 4 3 4 5 6 6 6 6 5 4 3 7 2 9 18 24 31 27 24 23 21 20 20 21 20 20 19 18 18 20 17 17 16 16 16 17 16 16 17 20 20 21 22 22
4 3 3 3 4 3 5 3 3 3 3 6 6 6 3 4 4 2 9 15 20 29 28 19 19 18 19 20 20 21 20 19 19 18 19 20 17 16 15 16 17 16 16 17 20 19 19 21 22
5 4 4 3 2 3 2 5 2 4 4 4 2 3 4 3 2 3 6 11 15 20 24 16 18 16 17 19 21 20 19 19 19 21 19 20 20 17 15 15 16 17 15 17 21 19 20 22 23
4 4 3 3 2 3 3 5 2 1 4 7 1 1 4 2 3 3 6 10 12 15 18 16 18 19 17 17 17 20 20 20 19 22 20 19 21 18 17 16 16 17 16 21 21 19 19 21 21
3 4 2 3 4 4 3 2 2 1 2 4 3 2 4 3 4 4 5 8 11 15 17 15 13 14 13 9 9 16 21 24 23 22 19 21 22 20 18 17 18 18 18 19 20 17 17 18 18
4 3 7 5 3 4 3 1 2 2 5 3 4 5 5 2 3 5 8 8 10 14 19 21 13 7 10 7 4 7 21 26 26 24 22 26 24 21 19 18 19 19 19 18 19 17 17 17 20
3 4 4 4 7 4 2 2 1 2 4 2 7 7 7 7 6 7 10 12 9 15 20 24 23 18 21 21 30 37 41 31 27 27 26 29 26 22 21 20 20 21 21 22 20 16 15 19 23
1 5 4 4 4 3 3 1 2 4 2 5 6 4 4 9 7 11 13 11 11 13 20 20 22 21 20 22 23 26 28 30 29 29 28 31 28 24 23 22 23 24 22 22 18 18 19 21 22
3 3 4 7 6 6 3 3 3 4 2 5 6 9 8 7 11 13 12 13 7 12 16 21 17 17 20 22 11 20 27 33 33 32 31 32 30 26 23 22 24 27 24 22 22 21 22 23 24
3 4 6 5 4 3 5 2 6 3 3 5 5 7 5 5 8 12 16 16 14 8 17 19 17 13 11 7 7 3 30 38 35 35 33 32 30 26 24 23 25 28 25 25 23 22 23 24 24
2 4 7 2 3 1 5 1 4 1 1 5 7 6 5 5 7 9 14 18 15 14 13 22 22 14 12 7 5 5 5 25 35 36 34 33 30 27 25 25 29 31 27 24 25 24 24 24 24
3 4 4 4 4 2 3 7 4 2 2 4 7 7 6 5 7 11 19 19 17 13 9 24 24 19 15 12 10 16 18 6 29 33 33 33 30 27 24 27 32 29 25 23 28 28 26 25 24
5 2 3 7 2 3 4 5 4 3 1 4 6 7 9 11 8 12 19 19 19 16 9 27 28 24 19 14 9 13 16 20 24 30 31 31 30 27 25 29 32 26 25 25 30 30 28 26 24
4 2 4 5 4 1 4 9 5 3 1 3 6 7 7 8 12 18 21 19 17 20 14 27 34 29 23 12 18 13 13 14 21 28 30 31 30 28 26 31 29 25 25 28 32 32 29 28 26
2 3 5 5 5 3 3 6 6 4 2 4 6 7 9 11 12 21 21 20 15 16 12 29 30 34 31 19 15 8 13 14 16 24 29 29 29 28 27 32 29 24 24 28 33 32 29 26 24
3 3 5 5 3 1 5 8 5 3 1 4 7 10 11 9 13 15 17 18 14 11 13 24 29 34 36 25 21 13 19 13 18 18 22 23 24 26 25 30 28 25 25 27 33 34 29 25 26
3 4 4 5 5 0 5 6 3 2 2 4 7 8 7 11 15 15 14 17 12 8 8 18 23 27 30 23 22 16 19 19 17 15 18 21 23 28 28 28 28 28 28 29 33 35 32 27 25
3 3 3 2 4 2 3 4 4 2 6 4 8 11 10 14 14 11 10 10 10 9 5 7 13 11 18 24 25 25 16 17 21 20 15 15 21 23 31 27 26 28 29 30 32 32 31 32 29
6 1 1 1 2 3 2 2 6 3 4 6 9 10 13 13 13 11 9 11 11 9 10 13 10 9 12 19 22 24 20 17 26 19 18 21 18 20 24 24 26 26 27 31 31 32 30 31 33
3 2 5 4 2 2 2 3 5 3 3 4 7 10 13 13 14 11 15 17 18 18 18 17 17 12 12 13 19 21 25 28 23 20 26 25 26 25 26 24 19 20 24 28 30 30 28 27 27
3 5 3 4 3 5 1 2 8 3 2 3 5 9 9 10 11 13 12 15 17 17 17 19 21 20 13 11 11 17 23 23 23 26 28 26 24 20 19 22 16 18 23 24 26 27 25 24 25
2 5 5 5 2 4 3 4 4 1 4 1 3 5 6 7 8 9 11 13 14 14 14 18 20 20 17 15 13 13 16 22 23 23 23 23 23 22 19 15 16 17 18 21 22 22 23 25 24
3 2 4 6 2 3 3 6 5 1 3 2 5 5 4 5 6 6 8 12 12 13 12 14 17 16 19 18 15 14 15 19 20 18 20 19 19 19 17 12 10 11 16 20 25 26 23 19 16
3 7 3 3 1 3 4 4 5 4 4 3 2 2 3 3 4 5 7 8 11 12 12 12 12 14 15 16 16 17 16 17 19 21 19 17 19 19 20 19 19 20 21 22 21 20 16 12 8
3 2 4 4 4 4 2 5 6 5 4 4 5 3 2 3 3 3 5 6 9 13 15 14 14 15 16 18 20 20 19 19 17 16 14 13 13 13 15 16 17 15 14 15 16 13 10 9 9
4 6 6 4 4 2 3 6 1 5 5 5 5 5 3 3 1 3 6 7 11 14 16 16 17 18 18 19 24 22 21 21 21 19 17 14 14 12 12 14 14 12 10 8 6 6 7 7 7
Wind_Direction
337 333 357 30 50 60 277 266 301 353 332 250 276 248 254 93 105 232 339 176 167 171 174 181 174 168 167 163 155 150 146 143 137 140 134 125 121 118 119 119 117 109 103 99 97 92 92 91 94
148 97 54 80 92 70 268 295 9 284 289 298 299 265 36 11 70 120 149 150 168 169 176 181 178 173 168 168 159 152 149 146 141 140 135 130 126 123 121 122 121 113 106 107 102 97 95 94 95
129 91 83 91 115 189 218 348 288 297 299 337 342 49 34 348 334 200 321 175 166 170 176 183 182 180 172 171 161 155 152 150 147 142 137 136 133 129 127 125 126 115 111 111 105 100 99 98 99
135 29 34 97 216 255 236 318 324 332 351 32 347 351 70 321 297 307 202 165 168 172 175 185 185 182 178 172 167 160 156 155 151 150 145 143 138 136 132 129 130 121 114 111 108 102 99 101 101
54 56 68 37 264 268 263 276 322 346 343 327 342 333 344 16 338 8 176 171 172 177 179 185 191 187 183 176 169 166 161 159 157 157 152 145 142 140 136 133 130 126 119 115 113 109 102 98 98
46 94 76 226 250 269 298 308 315 351 338 329 17 342 318 333 359 124 167 179 182 182 184 188 191 192 189 179 175 172 167 165 163 162 159 151 148 144 140 137 133 132 130 126 116 112 109 104 104
113 86 194 198 256 311 269 331 44 331 320 341 266 358 291 313 57 139 175 186 188 188 188 191 188 202 200 190 180 179 173 172 170 168 168 160 153 148 143 140 136 132 131 134 122 119 119 112 109
104 94 139 250 208 261 253 331 323 6 297 308 201 24 310 330 193 127 164 186 189 191 192 196 187 189 195 203 200 188 185 180 179 176 178 169 156 151 143 140 141 131 129 131 119 121 117 117 117
112 67 203 238 181 255 256 2 278 5 314 325 345 254 273 308 194 206 167 169 186 191 194 190 183 168 161 164 195 210 193 190 184 182 181 169 156 154 150 145 144 138 128 126 124 125 120 116 121
89 124 218 216 205 219 271 262 301 18 337 295 317 325 341 307 331 289 244 209 189 184 191 204 192 186 193 224 233 286 236 196 190 187 175 169 161 161 155 147 146 144 133 133 127 127 133 131 129
161 189 208 251 234 223 227 274 112 13 328 300 285 310 352 27 347 300 278 257 250 226 209 210 218 247 260 254 268 285 311 206 188 185 178 169 164 168 158 152 150 149 141 139 144 139 132 128 133
236 238 203 262 240 163 225 298 33 87 4 330 18 3 45 35 25 19 1 331 270 233 236 228 233 244 245 245 239 260 246 201 185 186 179 173 169 169 164 162 158 158 157 153 148 138 131 131 130
189 258 212 253 272 239 181 236 209 109 34 18 18 41 29 19 357 357 357 8 5 255 238 229 230 241 250 260 265 267 234 191 188 184 181 179 175 172 170 167 164 162 161 160 150 142 135 134 131
230 272 279 272 294 267 160 163 137 146 28 48 41 34 12 0 343 336 346 346 351 334 242 225 225 217 248 241 212 202 195 194 192 184 183 183 179 175 175 170 167 157 161 159 155 149 142 139 136
283 327 331 278 311 355 143 203 171 27 32 21 15 9 346 313 332 329 330 324 326 328 254 211 194 202 205 192 227 27 168 183 194 186 183 183 182 178 177 173 168 163 163 162 162 156 148 144 141
44 55 4 279 352 329 125 254 150 65 101 360 8 350 338 318 290 311 327 319 317 316 272 211 196 212 211 219 171 196 264 232 196 188 183 184 184 182 178 174 168 165 167 171 170 161 154 150 148
10 253 267 315 333 223 196 260 152 165 102 23 2 348 338 325 316 308 320 318 314 307 277 211 204 208 203 198 189 172 152 199 200 194 187 186 187 185 184 177 171 169 168 169 170 166 160 155 150
246 293 268 249 283 256 252 262 217 204 211 23 358 324 302 303 300 309 318 320 315 310 271 206 207 207 201 194 189 169 170 179 187 202 192 192 191 189 186 179 178 175 172 174 173 170 166 160 154
178 207 249 253 258 293 253 280 245 215 284 4 312 313 322 301 293 310 321 323 327 320 214 191 197 201 201 193 183 177 146 165 175 202 200 199 195 189 188 183 184 182 181 177 179 171 167 159 161
207 243 263 284 256 237 319 282 257 220 241 85 359 325 308 317 324 322 324 324 337 319 209 182 190 197 205 211 198 184 174 183 199 202 203 203 199 184 195 188 186 190 183 179 179 174 164 164 165
235 207 233 231 327 276 339 299 346 322 85 51 342 280 328 326 325 325 325 320 338 344 208 187 196 198 198 194 193 192 174 177 167 186 188 193 196 193 188 192 193 192 190 183 180 180 174 169 177
276 223 242 276 35 258 40 287 303 294 316 50 311 355 349 343 331 323 323 323 352 351 134 140 190 172 185 188 183 183 170 156 165 169 176 183 186 190 194 196 206 197 193 188 185 186 186 181 182
220 29 310 282 180 38 338 68 268 358 326 14 329 342 355 347 342 347 13 31 50 70 97 103 117 120 133 161 170 176 172 169 152 156 191 177 169 186 192 208 207 203 201 198 191 191 193 193 186
122 115 47 54 80 8 277 125 282 291 290 346 305 345 359 355 349 24 51 55 66 76 83 92 96 98 120 144 161 166 168 158 163 169 162 168 180 181 186 195 201 205 213 202 194 194 198 200 193
87 63 339 3 10 223 226 70 246 261 155 197 328 345 355 350 7 15 38 55 63 76 68 72 73 74 96 114 140 156 155 161 159 158 165 165 170 182 192 190 205 221 210 193 192 193 197 197 191
167 154 153 211 213 266 302 241 258 176 144 285 18 8 10 5 11 21 20 43 61 81 86 84 85 85 90 96 110 139 161 160 165 166 166 166 165 159 164 160 181 192 190 186 186 183 169 157 151
170 182 158 106 22 32 254 290 301 306 266 81 38 38 26 8 14 13 31 45 68 75 91 109 105 98 92 99 102 111 139 150 155 167 169 160 160 167 177 171 166 158 163 162 154 145 142 147 148
160 155 85 12 128 275 285 275 241 280 279 128 125 48 55 33 30 17 28 57 90 95 95 99 104 101 103 106 110 115 120 133 144 150 157 163 167 164 150 142 141 141 141 143 152 154 152 157 167
141 173 63 116 138 183 287 264 210 215 217 197 166 133 6 45 48 44 40 50 84 97 102 105 112 112 119 124 121 117 120 124 130 139 136 144 153 167 168 177 186 187 178 173 173 178 191 210 228
170 171 152 128 212 170 153 273 320 205 214 189 161 149 134 92 63 86 82 78 69 81 92 91 109 121 128 123 124 122 125 122 115 106 103 116 123 136 149 157 160 167 184 196 219 233 233 221 203